Flag for Germany Weather past 2 weeks in Dresden, Saxony, Germany

Now
86 °F

Sunny.


Feels Like: 85 °F
Forecast: 62 / 90 °F
Wind: 2 mph from North

Location: Dresden-Klotzsche

Current Time: Aug 31, 2015 at 11:39:06 AM

Latest Report: Aug 31, 2015 at 11:20 AM


Visibility: 10 mi

Pressure: 29.95 "Hg

Humidity: 38%

Dew point: 57 °F

Location of DresdenLocation

Historic Weather in Dresden — Graph

°F

Dresden temperature yesterday

Maximum temperature yesterday: 90 °F (at 3:50 PM)
Minimum temperature yesterday: 61 °F (at 6:20 AM)
Average temperature yesterday: 77 °F

Past Weeks' High & Low Weather Summary

 TemperatureHumidityPressure
High90 °F (Aug 30, 3:50 PM)100% (Aug 16, 7:20 PM)30.30 "Hg (Aug 16, 7:20 PM)
Low50 °F (Aug 22, 5:50 AM)27% (Aug 22, 2:20 PM)29.74 "Hg (Aug 24, 6:20 PM)
Average66 °F73%30.03 "Hg
* Reported Aug 16 10:20 AM — Aug 31 10:20 AM, Dresden, Weather by CustomWeather, © 2015

Note: Actual official high and low records may vary slightly from our data, if they occured in-between our weather recording intervals... More about our weather records

Advertising

Dresden weather history for previous 24 hours

 ConditionsComfort  
Time TempWeatherWind HumidityBarometerVisibility
10:20 AM
Mon, Aug 31
81 °FSunny.6 mph66%29.95 "Hg10 mi
9:50 AM79 °FPassing clouds.3 mph65%29.95 "HgN/A
9:20 AM75 °FPassing clouds.3 mph69%29.95 "HgN/A
8:50 AM73 °FSunny.6 mph74%29.98 "Hg10 mi
8:20 AM72 °FSunny.3 mph73%29.98 "Hg10 mi
7:50 AM68 °FPassing clouds.3 mph83%29.98 "HgN/A
7:20 AM68 °FSunny.3 mph88%29.98 "Hg10 mi
6:50 AM66 °FClear.3 mph88%29.98 "Hg10 mi
6:20 AM66 °FClear.3 mph94%29.98 "Hg10 mi
5:50 AM66 °FClear.1 mph94%29.98 "Hg10 mi
5:20 AM66 °FClear.2 mph94%29.98 "Hg10 mi
4:50 AM68 °FPassing clouds.3 mph88%29.98 "HgN/A
4:20 AM68 °FClear.2 mph88%29.98 "Hg10 mi
3:50 AM68 °FClear.2 mph94%29.98 "Hg10 mi
3:20 AM68 °FClear.3 mph94%30.01 "Hg10 mi
2:50 AM70 °FClear.No wind88%30.01 "Hg10 mi
2:20 AM70 °FClear.1 mph88%30.01 "Hg10 mi
1:50 AM70 °FClear.1 mph88%30.01 "Hg10 mi
1:20 AM70 °FClear.6 mph88%30.01 "Hg10 mi
12:50 AM72 °FClear.5 mph78%30.04 "Hg10 mi
12:20 AM73 °FClear.5 mph74%30.04 "Hg10 mi
11:20 PM
Sun, Aug 30
75 °FClear.1 mph69%30.04 "Hg10 mi
10:50 PM75 °FClear.5 mph69%30.04 "Hg10 mi
10:20 PM77 °FClear.6 mph65%30.04 "Hg10 mi
9:20 PM81 °FPassing clouds.3 mph58%30.04 "HgN/A
8:50 PM81 °FSunny.5 mph58%30.04 "Hg10 mi
8:20 PM82 °FSunny.3 mph55%30.04 "Hg10 mi
7:50 PM86 °FSunny.2 mph46%30.04 "Hg10 mi
7:20 PM86 °FSunny.3 mph46%30.04 "Hg10 mi
6:50 PM86 °FPassing clouds.3 mph49%30.04 "HgN/A
6:20 PM88 °FSunny.3 mph46%30.04 "Hg10 mi
5:50 PM90 °FSunny.3 mph38%30.04 "Hg10 mi
5:20 PM90 °FPassing clouds.5 mph38%30.04 "HgN/A
4:50 PM90 °FPassing clouds.5 mph38%30.04 "HgN/A
4:20 PM90 °FPassing clouds.7 mph41%30.04 "HgN/A
3:50 PM90 °FPassing clouds.7 mph43%30.07 "HgN/A
3:20 PM88 °FPassing clouds.6 mph46%30.07 "HgN/A
2:50 PM88 °FPassing clouds.6 mph46%30.07 "HgN/A
2:20 PM88 °FPassing clouds.8 mph46%30.09 "HgN/A
1:50 PM86 °FPassing clouds.6 mph49%30.09 "HgN/A
1:20 PM86 °FPassing clouds.6 mph49%30.09 "HgN/A
12:50 PM84 °FPassing clouds.6 mph51%30.09 "HgN/A
12:20 PM82 °FPassing clouds.6 mph58%30.09 "HgN/A
11:50 AM84 °FPassing clouds.5 mph55%30.12 "HgN/A
11:20 AM82 °FPassing clouds.5 mph55%30.12 "HgN/A
Weather by CustomWeather, © 2015

See weather overviewHow to use our weather pages